Weather History for Worland, WY

Change the Weather History Date:

Saturday, October 5, 2013

  Actual Average Record
Temperature  
Mean Temperature 33 °F 50 °F  
Max Temperature 44 °F 65 °F 87 °F (1993)
Min Temperature 22 °F 35 °F 22 °F (2013)
Degree Days  
Heating Degree Days 32 15  
Month to date heating degree days 116 72  
Since 1 July heating degree days 262 329  
Cooling Degree Days 0 0  
Month to date cooling degree days 0 0  
Year to date cooling degree days 852 535  
Growing Degree Days 0 (Base 50)    
Moisture  
Dew Point 27 °F    
Average Humidity 79    
Maximum Humidity 96    
Minimum Humidity 62    
Precipitation  
Precipitation 0.00 in 0.03 in 1.15 in (1972)
Month to date precipitation 1.40 0.16  
Year to date precipitation 7.24 6.46  
Sea Level Pressure  
Sea Level Pressure 30.41 in    
Wind  
Wind Speed 4 mph (SSE)    
Max Wind Speed 9 mph    
Max Gust Speed 10 mph    
Visibility 10 miles    
Events      
T = Trace of Precipitation, MM = Missing Value Source: NWS Daily Summary

Daily Weather History Graph

Daily Weather History Graph

Search for Another Location

Airport:

Trip Planner

Search our weather history database for the weather conditions in past years. The results will help you decide how hot, cold, wet, or windy it might be!

Date:

Astronomy

Oct. 05, 2013 Rise Set
Actual Time 7:14 AM MDT 6:44 PM MDT
Civil Twilight 6:45 AM MDT 7:13 PM MDT
Nautical Twilight 6:12 AM MDT 7:46 PM MDT
Astronomical Twilight 5:38 AM MDT 8:20 PM MDT
Moon 7:59 AM MDT (10/5) 7:02 PM MDT (10/5)
Length of Visible Light 12h 27m
Length of Day
11h 30m
New Moon, 1% of the Moon is Illuminated
Oct 5
New Moon
Oct 11
First Quarter
Oct 18
Full
Oct 26
Last Quarter
Nov 3
New

Hourly Weather History & Observations

Time (MDT) Temp. Windchill Dew Point Humidity Pressure Visibility Wind Dir Wind Speed Gust Speed Precip Events Conditions
12:53 AM 32.0 °F 25.6 °F 27.0 °F 82% 30.43 in 10.0 mi WSW 6.9 mph - N/A   Clear
1:53 AM 30.9 °F - 26.1 °F 82% 30.43 in 10.0 mi Calm Calm - N/A   Clear
2:53 AM 28.0 °F - 24.1 °F 85% 30.45 in 10.0 mi Calm Calm - N/A   Clear
3:53 AM 27.0 °F 21.6 °F 23.0 °F 85% 30.44 in 10.0 mi SW 4.6 mph - N/A   Clear
4:53 AM 24.1 °F 17.0 °F 21.0 °F 88% 30.44 in 10.0 mi SSE 5.8 mph - N/A   Clear
5:53 AM 25.0 °F 18.1 °F 21.0 °F 85% 30.44 in 10.0 mi SSE 5.8 mph - N/A   Clear
6:53 AM 23.0 °F - 19.0 °F 85% 30.44 in 10.0 mi Calm Calm - N/A   Clear
7:53 AM 24.1 °F 16.0 °F 19.9 °F 84% 30.44 in 10.0 mi South 6.9 mph - N/A   Clear
8:53 AM 26.1 °F 18.4 °F 21.0 °F 81% 30.43 in 10.0 mi SE 6.9 mph - N/A   Clear
9:53 AM 28.0 °F 22.8 °F 23.0 °F 81% 30.43 in 10.0 mi South 4.6 mph - N/A   Clear
10:53 AM 30.9 °F 26.2 °F 25.0 °F 79% 30.43 in 10.0 mi SE 4.6 mph - N/A   Clear
11:53 AM 34.0 °F 31.0 °F 28.0 °F 79% 30.42 in 10.0 mi SE 3.5 mph - N/A   Clear
12:53 PM 37.0 °F 33.3 °F 28.9 °F 73% 30.40 in 10.0 mi South 4.6 mph - N/A   Clear
1:53 PM 39.0 °F 36.8 °F 30.0 °F 70% 30.38 in 10.0 mi SSE 3.5 mph - N/A   Clear
2:53 PM 41.0 °F 37.1 °F 30.0 °F 65% 30.37 in 10.0 mi South 5.8 mph - N/A   Clear
3:53 PM 42.1 °F 40.2 °F 30.9 °F 65% 30.36 in 10.0 mi SSE 3.5 mph - N/A   Clear
4:53 PM 43.0 °F 41.3 °F 30.0 °F 60% 30.37 in 10.0 mi ESE 3.5 mph - N/A   Clear
5:53 PM 43.0 °F 39.5 °F 30.9 °F 62% 30.37 in 10.0 mi SE 5.8 mph - N/A   Clear
6:53 PM 39.9 °F 34.5 °F 33.1 °F 77% 30.38 in 10.0 mi SSE 8.1 mph - N/A   Clear
7:53 PM 37.0 °F 31.0 °F 32.0 °F 82% 30.40 in 10.0 mi SSE 8.1 mph - N/A   Clear
8:53 PM 36.0 °F 33.3 °F 30.9 °F 82% 30.42 in 10.0 mi SE 3.5 mph - N/A   Clear
9:53 PM 34.0 °F 29.8 °F 32.0 °F 92% 30.42 in 10.0 mi West 4.6 mph - N/A   Clear
10:53 PM 34.0 °F 29.8 °F 30.0 °F 85% 30.41 in 10.0 mi South 4.6 mph - N/A   Clear
11:53 PM 33.1 °F 30.0 °F 27.0 °F 78% 30.39 in 10.0 mi SSE 3.5 mph - N/A   Clear